KG5ELE Weather Reports


Display with metric or nautical units.
time (UTC)temp
F
wind
direction
speed
MPH
gust
MPH
rain 1hr
in
rain 24hr
in
rain mn
in
humidity
%
barometer
mb
20260506111505 40 0 0.0 0.0 0.00 0.04 0.00 81 1010.2
20260506110026 40 0 0.0 0.0 0.00 0.04 0.00 80 1009.9
20260506104505 41 0 0.0 0.0 0.00 0.04 0.00 79 1009.6
20260506103005 42 0 0.0 0.0 0.00 0.04 0.00 79 1009.5
20260506101526 41 0 0.0 0.0 0.00 0.04 0.00 77 1009.3
20260506100026 42 0 0.0 0.0 0.00 0.04 0.00 76 1009.1
20260506094505 43 228 0.0 1.0 0.00 0.04 0.00 76 1008.9
20260506093005 43 0 0.0 0.0 0.00 0.04 0.00 73 1008.9
20260506091505 45 0 0.0 0.0 0.00 0.04 0.00 71 1008.8
20260506090005 46 0 0.0 0.0 0.00 0.04 0.00 68 1008.8
20260506084526 47 0 0.0 0.0 0.00 0.04 0.00 67 1008.7
20260506083005 48 271 0.0 2.0 0.00 0.04 0.00 65 1008.7
20260506081526 49 0 0.0 0.0 0.00 0.04 0.00 66 1008.8
20260506071504 50 113 0.0 1.0 0.00 0.04 0.00 75 1008.4
20260506061504 50 0 0.0 0.0 0.00 0.04 0.00 74 1007.7
20260506044504 53 74 0.0 1.0 0.00 0.04 0.04 67 1007.1
20260506043004 54 278 0.0 3.0 0.00 0.04 0.04 66 1006.8
20260506041504 54 293 1.0 5.0 0.00 0.04 0.04 65 1006.4
20260506040025 55 335 1.0 8.0 0.00 0.04 0.04 62 1006.1
20260506034504 55 294 2.0 7.0 0.00 0.04 0.04 61 1005.9
20260506033005 55 296 2.0 8.0 0.00 0.04 0.04 60 1005.3
20260506031504 55 282 2.0 7.0 0.00 0.04 0.04 70 1004.9
20260506030004 54 0 0.0 0.0 0.00 0.04 0.04 68 1004.3
20260506024504 55 0 0.0 0.0 0.00 0.04 0.04 66 1003.8
20260506023025 55 0 0.0 0.0 0.00 0.04 0.04 64 1003.5
20260506021525 56 0 0.0 0.0 0.00 0.04 0.04 63 1003.3
20260506020004 57 0 0.0 0.0 0.00 0.04 0.04 60 1002.5
20260506014504 59 0 0.0 0.0 0.00 0.04 0.04 58 1002.3
20260506013025 60 0 0.0 0.0 0.00 0.04 0.04 54 1002.3
20260506011504 61 307 0.0 3.0 0.00 0.04 0.04 52 1002.3
20260506010004 60 0 0.0 0.0 0.00 0.04 0.04 55 1002.2
20260506004504 61 0 0.0 0.0 0.00 0.04 0.04 52 1001.9
20260506003004 62 0 0.0 0.0 0.00 0.04 0.04 50 1001.9
20260506001504 63 278 0.0 4.0 0.00 0.04 0.04 49 1001.5
20260505234504 62 279 1.0 3.0 0.00 0.04 0.04 50 1001.8
20260505233004 62 253 1.0 4.0 0.00 0.04 0.04 51 1001.8
20260505231504 62 273 1.0 4.0 0.00 0.04 0.04 53 1001.9
20260505230004 60 281 1.0 5.0 0.00 0.04 0.04 56 1002.0
20260505223025 60 267 4.0 10.0 0.00 0.04 0.04 55 1002.1
20260505221504 60 264 4.0 10.0 0.00 0.04 0.04 59 1002.3
20260505220004 60 278 2.0 14.0 0.00 0.04 0.04 64 1002.3
20260505214504 60 256 3.0 10.0 0.00 0.04 0.04 66 1002.8
20260505213004 62 281 2.0 7.0 0.00 0.04 0.04 56 1002.4
20260505211503 63 299 1.0 6.0 0.00 0.04 0.04 53 1002.0
20260505210004 65 265 2.0 7.0 0.00 0.04 0.04 51 1001.9
20260505204504 65 345 1.0 4.0 0.00 0.04 0.04 51 1001.9
20260505203003 64 228 1.0 5.0 0.00 0.04 0.04 52 1002.9
20260505201504 64 270 1.0 5.0 0.00 0.04 0.04 50 1002.6
20260505200024 65 265 1.0 6.0 0.00 0.04 0.04 52 1002.6
20260505194504 63 286 0.0 5.0 0.00 0.04 0.04 57 1002.5
20260505193004 61 264 3.0 8.0 0.00 0.04 0.04 63 1002.7
20260505191503 60 254 3.0 10.0 0.00 0.04 0.04 68 1003.0
20260505190004 59 244 3.0 9.0 0.00 0.04 0.04 68 1003.0
20260505184503 61 248 4.0 7.0 0.00 0.04 0.04 62 1003.0
20260505183003 62 14 0.0 2.0 0.00 0.04 0.04 53 1002.8
20260505181503 62 264 1.0 5.0 0.00 0.04 0.04 54 1003.0
20260505180024 62 43 0.0 2.0 0.00 0.04 0.04 56 1003.1
20260505174503 60 49 1.0 5.0 0.00 0.04 0.04 59 1003.2
20260505173003 60 35 1.0 6.0 0.00 0.04 0.04 61 1003.2
20260505170003 55 51 1.0 4.0 0.01 0.04 0.04 74 1003.7
20260505164503 54 45 0.0 2.0 0.02 0.04 0.04 78 1003.7
20260505161524 53 16 0.0 3.0 0.03 0.03 0.03 81 1003.7
20260505153003 55 351 0.0 4.0 0.01 0.01 0.01 70 1003.6
20260505151503 56 292 0.0 3.0 0.00 0.00 0.00 70 1003.7
20260505124505 59 134 0.0 1.0 0.00 0.00 0.00 42 1003.3
20260505123005 59 0 0.0 0.0 0.00 0.00 0.00 43 1003.4
20260505121505 58 103 1.0 5.0 0.00 0.00 0.00 44 1003.2
20260505120026 57 96 0.0 1.0 0.00 0.00 0.00 44 1003.4
20260505114505 58 0 0.0 0.0 0.00 0.00 0.00 42 1003.1
20260505113005 59 0 0.0 0.0 0.00 0.00 0.00 40 1003.3